Time,TemperatureF,DewpointF,PressureIn,WindDirection,WindDirectionDegrees,WindSpeedMPH,WindSpeedGustMPH,Humidity,HourlyPrecipIn,Conditions,Clouds,dailyrainin,SoftwareType,DateUTC
2013-07-10 11:22:00,72.0,57.0,-100.00,NNW,345,6.0,12.0,60,0.00,,,0.00,,2013-07-10 16:22:00,
2013-07-10 11:33:00,72.0,57.0,-100.00,NW,310,9.0,12.0,60,0.00,,,0.00,,2013-07-10 16:33:00,
2013-07-10 11:44:00,71.0,57.0,-100.00,WNW,290,10.0,13.0,60,0.00,,,0.00,,2013-07-10 16:44:00,
2013-07-10 11:53:00,72.0,55.0,-100.00,North,355,6.0,12.0,55,0.00,,,0.00,,2013-07-10 16:53:00,
2013-07-10 12:02:00,73.0,55.0,-100.00,North,355,6.0,11.0,53,0.00,,,0.00,,2013-07-10 17:02:00,
2013-07-10 12:11:00,74.0,55.0,-100.00,NW,320,6.0,13.0,53,0.00,,,0.00,,2013-07-10 17:11:00,
2013-07-10 12:23:00,74.0,57.0,-100.00,NW,325,4.0,13.0,54,0.00,,,0.00,,2013-07-10 17:23:00,
2013-07-10 12:32:00,73.0,55.0,-100.00,North,0,9.0,14.0,52,0.00,,,0.00,,2013-07-10 17:32:00,
2013-07-10 13:11:00,74.0,52.0,-100.00,NNW,335,8.0,16.0,45,0.00,,,0.00,,2013-07-10 18:11:00,
2013-07-10 13:21:00,74.0,52.0,-100.00,North,0,11.0,16.0,45,0.00,,,0.00,,2013-07-10 18:21:00,
2013-07-10 13:32:00,74.0,52.0,-100.00,NNW,330,7.0,16.0,46,0.00,,,0.00,,2013-07-10 18:32:00,
2013-07-10 13:52:00,75.0,52.0,-100.00,NW,320,8.0,18.0,44,0.00,,,0.00,,2013-07-10 18:52:00,
2013-07-10 14:01:00,75.0,52.0,-100.00,NNW,340,8.0,18.0,43,0.00,,,0.00,,2013-07-10 19:01:00,
2013-07-10 14:11:00,74.0,50.0,-100.00,NNW,345,10.0,19.0,42,0.00,,,0.00,,2013-07-10 19:11:00,
2013-07-10 14:32:00,75.0,50.0,-100.00,NNW,330,11.0,16.0,41,0.00,,,0.00,,2013-07-10 19:32:00,
2013-07-10 15:01:00,76.0,52.0,-100.00,NW,310,7.0,17.0,40,0.00,,,0.00,,2013-07-10 20:01:00,
2013-07-10 15:11:00,78.0,52.0,-100.00,NW,305,7.0,17.0,40,0.00,,,0.00,,2013-07-10 20:11:00,
2013-07-10 15:32:00,76.0,52.0,-100.00,North,0,6.0,17.0,40,0.00,,,0.00,,2013-07-10 20:32:00,
2013-07-10 15:52:00,76.0,50.0,-100.00,NW,325,9.0,15.0,40,0.00,,,0.00,,2013-07-10 20:52:00,
2013-07-10 16:11:00,77.0,50.0,-100.00,NNW,330,7.0,15.0,39,0.00,,,0.00,,2013-07-10 21:11:00,
2013-07-10 16:22:00,77.0,50.0,-100.00,NNW,335,7.0,12.0,39,0.00,,,0.00,,2013-07-10 21:22:00,
2013-07-10 16:52:00,77.0,52.0,-100.00,WNW,295,2.0,11.0,40,0.00,,,0.00,,2013-07-10 21:52:00,
2013-07-10 17:01:00,77.0,50.0,-100.00,NW,320,6.0,13.0,39,0.00,,,0.00,,2013-07-10 22:01:00,
2013-07-10 17:11:00,77.0,52.0,-100.00,North,0,10.0,14.0,39,0.00,,,0.00,,2013-07-10 22:11:00,
2013-07-10 17:21:00,77.0,50.0,-100.00,North,0,7.0,13.0,38,0.00,,,0.00,,2013-07-10 22:21:00,
2013-07-10 17:33:00,77.0,50.0,-100.00,NW,310,6.0,12.0,39,0.00,,,0.00,,2013-07-10 22:33:00,
2013-07-10 17:53:00,77.0,50.0,-100.00,North,355,6.0,11.0,39,0.00,,,0.00,,2013-07-10 22:53:00,
2013-07-10 18:01:00,78.0,52.0,-100.00,NW,310,6.0,9.0,39,0.00,,,0.00,,2013-07-10 23:01:00,
2013-07-10 18:22:00,77.0,52.0,-100.00,NNW,335,6.0,11.0,40,0.00,,,0.00,,2013-07-10 23:22:00,
2013-07-10 18:52:00,76.0,52.0,-100.00,NNW,330,6.0,11.0,41,0.00,,,0.00,,2013-07-10 23:52:00,
2013-07-10 19:01:00,76.0,52.0,-100.00,North,0,6.0,8.0,42,0.00,,,0.00,,2013-07-11 00:01:00,
2013-07-10 19:11:00,76.0,52.0,-100.00,North,355,4.0,9.0,42,0.00,,,0.00,,2013-07-11 00:11:00,
2013-07-10 19:22:00,76.0,52.0,-100.00,NNW,340,4.0,9.0,42,0.00,,,0.00,,2013-07-11 00:22:00,
2013-07-10 19:32:00,75.0,52.0,-100.00,North,0,3.0,9.0,43,0.00,,,0.00,,2013-07-11 00:32:00,
2013-07-10 19:52:00,75.0,52.0,-100.00,North,0,4.0,6.0,44,0.00,,,0.00,,2013-07-11 00:52:00,
2013-07-10 20:01:00,75.0,52.0,-100.00,NW,325,4.0,6.0,45,0.00,,,0.00,,2013-07-11 01:01:00,
2013-07-10 20:22:00,74.0,54.0,-100.00,NNW,340,4.0,6.0,47,0.00,,,0.00,,2013-07-11 01:22:00,
2013-07-10 20:32:00,74.0,54.0,-100.00,NNW,340,2.0,6.0,48,0.00,,,0.00,,2013-07-11 01:32:00,
2013-07-10 20:52:00,73.0,54.0,-100.00,North,0,1.0,3.0,49,0.00,,,0.00,,2013-07-11 01:52:00,
2013-07-10 21:02:00,72.0,54.0,-100.00,WNW,295,4.0,5.0,53,0.00,,,0.00,,2013-07-11 02:02:00,
2013-07-10 21:22:00,72.0,55.0,-100.00,WNW,300,4.0,5.0,56,0.00,,,0.00,,2013-07-11 02:22:00,
2013-07-10 22:01:00,70.0,61.0,-100.00,West,270,2.0,4.0,70,0.00,,,0.00,,2013-07-11 03:01:00,
2013-07-10 22:11:00,69.0,59.0,-100.00,West,280,1.0,3.0,68,0.00,,,0.00,,2013-07-11 03:11:00,
2013-07-10 22:21:00,69.0,57.0,-100.00,WNW,300,2.0,4.0,67,0.00,,,0.00,,2013-07-11 03:21:00,
2013-07-10 22:33:00,69.0,59.0,-100.00,SW,220,1.0,2.0,72,0.00,,,0.00,,2013-07-11 03:33:00,
2013-07-10 23:22:00,67.0,61.0,-100.00,SW,230,1.0,2.0,80,0.00,,,0.00,,2013-07-11 04:22:00,
2013-07-10 23:42:00,66.0,61.0,-100.00,WSW,240,1.0,2.0,80,0.00,,,0.00,,2013-07-11 04:42:00,
2013-07-10 23:53:00,66.0,61.0,-100.00,SW,235,2.0,2.0,80,0.00,,,0.00,,2013-07-11 04:53:00,